Starlink 34818

operational
NORAD ID: 65238 Int'l Des: 2025-179 Owner: SPXS Country: US Constellation: starlink
LEOCIRCULARRETROGRADESSO

About Starlink 34818

Description loading...

Live Position

Loading 3D Globe...

Upcoming Passes

Altitude History

Altitude vs Time

uPlot chart will show altitude changes over time

Two-Line Element Set

1 65238U 25179D 26048.70864622 .00003441 00000-0 24256-3 0 9997
2 65238 97.6040 93.2982 0001771 108.1718 251.9702 15.05656469 28549
Epoch: Feb 17, 2026 • Age: 14 hours

Current Status

Altitude 556.7 km
Velocity 7.58 km/s
Sub-Earth Point -18.35°S, 23.41°E
Launch Date Aug 18, 2025
Age 0.5 years
Type internet

Technical Details

Classification Payload
Mass 575.00 kg
Dry Mass 530.00 kg
Total Mass 575.00 kg
Length 0.30 m
Diameter 4.10 m
Span 29.00 m
Shape Box + pan
Manufacturer SPXS
Bus Type Starlink V2MO
Phase Status In Orbit
Owner/State SPXS/US

Large Constellations

Loading constellations...